Simultaneous Nadir Overpasses (SNOs) Predictions

Prediction of SNOs between AQUA and GOES-15 Satellite Orbit:

Table of predicted SNOs for the next 14.0 days since TLE Epoch: 9/17/2022
Index Date Time (AQUA) AQUA Lat,Lon GOES-15 Lat,Lon Distance(km) Time Diff (sec)
1 09/18/2022 22:13:15 -0.38,-128.12 -0.33,-127.74 42.23 80
2 09/20/2022 22:00:31 0.26,-125.02 -0.32,-127.80 316.98 80
3 09/21/2022 10:21:39 0.78,-130.14 0.31,-127.89 256.45 80
4 09/23/2022 10:08:55 0.12,-127.05 0.31,-127.95 102.34 80
5 09/23/2022 22:30:11 -1.19,-132.20 -0.29,-127.89 490.11 80
6 09/25/2022 09:56:11 -0.55,-123.95 0.31,-128.00 461.09 80
7 09/25/2022 22:17:26 -0.56,-129.10 -0.29,-127.95 131.24 80
8 09/27/2022 22:04:42 0.14,-126.00 -0.29,-128.00 227.34 80
9 09/28/2022 10:25:50 0.90,-131.13 0.28,-128.09 345.47 80
10 09/30/2022 10:13:05 0.24,-128.03 0.28,-128.13 12.29 80
